Nagpur Sonegaon, India

6:09 AM IST on May 25, 2017 (GMT +0530)
Nagpur

Weather History for VANP - June, 2013

Change the Weather History Date:

Sunday, June 30, 2013

  Actual Average Record
Temperature  
Mean Temperature 85 °F -  
Max Temperature 93 °F 89 °F - ()
Min Temperature 77 °F 75 °F - ()
Cooling Degree Days 20    
Growing Degree Days 35 (Base 50)    
Moisture  
Dew Point 75 °F    
Average Humidity 71    
Maximum Humidity 94    
Minimum Humidity 41    
Precipitation  
Precipitation 0.00 in 0.38 in - ()
Sea Level Pressure  
Sea Level Pressure 29.64 in    
Wind  
Wind Speed 4 mph ()    
Max Wind Speed 14 mph    
Max Gust Speed -    
Visibility 3.1 miles    
Events      
T = Trace of Precipitation, MM = Missing Value Source: Averaged Metar Reports

Daily Weather History Graph

Daily Weather History Graph

Search for Another Location

Airport or City:

Trip Planner

Search our weather history database for the weather conditions in past years. The results will help you decide how hot, cold, wet, or windy it might be!

Date:

Astronomy

Jun. 30, 2013 Rise Set
Actual Time 5:35 AM IST 6:59 PM IST
Civil Twilight 5:10 AM IST 7:24 PM IST
Nautical Twilight 4:41 AM IST 7:53 PM IST
Astronomical Twilight 4:10 AM IST 8:24 PM IST
Moon 12:19 AM IST (7/1) 12:20 PM IST (6/30)
Length of Visible Light 14h 13m
Length of Day
13h 23m
Waning Gibbous, 49% of the Moon is Illuminated
Jun 30
Waning Gibbous
Jul 8
New
Jul 16
First Quarter
Jul 22
Full
Jul 29
Last Quarter

Hourly Weather History & Observations

Time (IST) Temp. Heat Index Dew Point Humidity Pressure Visibility Wind Dir Wind Speed Gust Speed Precip Events Conditions
12:10 AM 78.8 °F - 77.0 °F 94% 29.65 in 3.1 mi Calm Calm - N/A   Haze
1:10 AM 78.8 °F - 77.0 °F 94% 29.65 in 3.1 mi Calm Calm - N/A   Haze
2:10 AM 77.0 °F - 75.2 °F 94% 29.65 in 3.1 mi Calm Calm - N/A   Haze
2:30 AM 79 °F - 76 °F 88% 29.60 in 2 mi Calm Calm - -   Haze
3:10 AM 78.8 °F - 77.0 °F 94% 29.65 in 3.1 mi Calm Calm - N/A   Haze
3:40 AM 78.8 °F - 75.2 °F 89% 29.65 in 3.1 mi Calm Calm - N/A   Haze
4:40 AM 78.8 °F - 75.2 °F 89% 29.65 in 3.1 mi Calm Calm - N/A   Haze
5:10 AM 78.8 °F - 77.0 °F 94% 29.65 in 3.1 mi West 4.6 mph - N/A   Haze
5:40 AM 78.8 °F - 77.0 °F 94% 29.65 in 3.1 mi Calm Calm - N/A   Haze
6:10 AM 78.8 °F - 77.0 °F 94% 29.65 in 3.1 mi Calm Calm - N/A   Haze
7:10 AM 78.8 °F - 77.0 °F 94% 29.71 in 3.1 mi West 2.3 mph - N/A   Haze
7:40 AM 80.6 °F 87.1 °F 77.0 °F 89% 29.71 in 3.1 mi West 8.1 mph - N/A   Haze
8:30 AM 83 °F - 74 °F 68% 29.66 in 2 mi WNW 6.9 mph - -   Haze
8:40 AM 84.2 °F 90.9 °F 73.4 °F 70% 29.71 in 3.1 mi West 4.6 mph - N/A   Haze
9:10 AM 84.2 °F 90.9 °F 73.4 °F 70% 29.71 in 3.1 mi WNW 8.1 mph - N/A   Haze
9:40 AM 86.0 °F 95.1 °F 75.2 °F 70% 29.71 in 3.1 mi WNW 6.9 mph - N/A   Haze
10:10 AM 86.0 °F 95.1 °F 75.2 °F 70% 29.71 in 3.1 mi West 11.5 mph - N/A   Haze
10:40 AM 86.0 °F 95.1 °F 75.2 °F 70% 29.71 in 3.1 mi WNW 11.5 mph - N/A   Haze
11:30 AM 88 °F - 74 °F 54% 29.64 in 2 mi WNW 11.5 mph - -   Mostly Cloudy
12:10 PM 87.8 °F 95.6 °F 73.4 °F 62% 29.71 in 3.7 mi West 10.4 mph - N/A   Scattered Clouds
12:40 PM 89.6 °F 98.2 °F 73.4 °F 59% 29.71 in 3.7 mi WNW 9.2 mph - N/A   Scattered Clouds
1:10 PM 89.6 °F 98.2 °F 73.4 °F 59% 29.68 in 3.7 mi WNW 11.5 mph - N/A   Scattered Clouds
1:40 PM 89.6 °F 98.2 °F 73.4 °F 59% 29.65 in 3.7 mi WNW 11.5 mph - N/A   Scattered Clouds
2:10 PM 89.6 °F 98.2 °F 73.4 °F 59% 29.62 in 3.7 mi WNW 12.7 mph - N/A   Scattered Clouds
2:30 PM 93 °F - 72 °F 41% 29.55 in 2 mi WNW 13.8 mph - -   Mostly Cloudy
3:10 PM 93.2 °F 105.0 °F 75.2 °F 56% 29.62 in 3.7 mi WNW 9.2 mph - N/A   Mostly Cloudy
3:40 PM 93.2 °F 105.0 °F 75.2 °F 56% 29.59 in 3.7 mi West 8.1 mph - N/A   Mostly Cloudy
4:10 PM 93.2 °F 105.0 °F 75.2 °F 56% 29.59 in 3.7 mi NW 9.2 mph - N/A   Scattered Clouds
4:40 PM 93.2 °F 105.0 °F 75.2 °F 56% 29.59 in 3.7 mi WNW 10.4 mph - N/A   Scattered Clouds
5:10 PM 93.2 °F 105.0 °F 75.2 °F 56% 29.59 in 3.7 mi WNW 8.1 mph - N/A   Mostly Cloudy
6:10 PM 89.6 °F 98.2 °F 73.4 °F 59% 29.59 in 3.7 mi WNW 8.1 mph - N/A   Mostly Cloudy
7:10 PM 87.8 °F 95.6 °F 73.4 °F 62% 29.59 in 3.1 mi WNW 3.5 mph - N/A   Haze
7:40 PM 86.0 °F 93.4 °F 73.4 °F 66% 29.59 in 3.1 mi WNW 3.5 mph - N/A   Haze
8:10 PM 86.0 °F 93.4 °F 73.4 °F 66% 29.62 in 3.1 mi West 2.3 mph - N/A   Haze
8:30 PM 85 °F - 73 °F 59% 29.57 in 2 mi WNW 4.6 mph - -   Haze
8:40 PM 86.0 °F 93.4 °F 73.4 °F 66% 29.62 in 3.1 mi West 3.5 mph - N/A   Haze
9:10 PM 86.0 °F 93.4 °F 73.4 °F 66% 29.62 in 3.1 mi West 2.3 mph - N/A   Haze
9:40 PM 84.2 °F 90.9 °F 73.4 °F 70% 29.62 in 3.1 mi Calm Calm - N/A   Haze
10:10 PM 84.2 °F 90.9 °F 73.4 °F 70% 29.62 in 3.1 mi West 2.3 mph - N/A   Haze
10:40 PM 84.2 °F 90.9 °F 73.4 °F 70% 29.62 in 3.1 mi West 4.6 mph - N/A   Haze
11:10 PM 84.2 °F 90.9 °F 73.4 °F 70% 29.62 in 3.1 mi West 4.6 mph - N/A   Haze
11:30 PM 82 °F - 73 °F 68% 29.59 in 2 mi West 5.8 mph - -   Haze